Location: Favalello
(42.2939°N, 9.2706°E)
Time: 13:51:19
(UTC+00:00)

Cosmos 304 Rocket - Pass Details

Date: 06 December 2019
Orbit: 679 x 688 km, 74.0° (Epoch: 28 January)

Event Time Altitude Azimuth Distance (km) Brightness Sun altitude
Rises 16:36:31 0° 342° (NNW) 3,054 7.1 -8.4°
Reaches altitude 10° 16:38:51 10° 346° (NNW) 2,136 6.2 -8.8°
Maximum altitude 16:43:38 64° 68° (ENE) 759 3.7 -9.6°
Drops below altitude 10° 16:48:23 10° 150° (SSE) 2,127 6.2 -10.5°
Sets 16:50:42 0° 154° (SSE) 3,040 7.0 -10.9°
